Flag for Netherlands Weather past 2 weeks in Kralendijk (Bonaire), Netherlands

Now
77 °F

Passing clouds.


Feels Like: 79 °F
Forecast: 79 / 87 °F
Wind: 15 mph from East

Location: Flamingo Airport - Bonaire

Current Time: Dec 21, 2014 at 9:03:35 PM

Latest Report: Dec 21, 2014 at 8:00 PM


Visibility: N/A

Pressure: 29.92 "Hg

Humidity: 79%

Dew point: 70 °F

Location of Kralendijk (Bonaire)Location

Historic Weather in Kralendijk (Bonaire) — Graph

°F

Kralendijk (Bonaire) temperature yesterday

Maximum temperature yesterday: 86 °F (at 1:00 PM)
Minimum temperature yesterday: 79 °F (at 12:00 AM)
Average temperature yesterday: 82 °F

Past Weeks' High & Low Weather Summary

 TemperatureHumidityPressure
High90 °F (Dec 16, 2:00 PM)89% (Dec 7, 4:00 AM)29.98 "Hg (Dec 7, 4:00 AM)
Low75 °F (Dec 15, 5:00 AM)62% (Dec 19, 4:00 PM)29.77 "Hg (Dec 9, 6:00 PM)
Average82 °F76%29.88 "Hg
* Reported Midnight between Dec 6 and Dec 7 — Dec 21 8:00 PM, Kralendijk (Bonaire), Weather by CustomWeather, © 2014

Note: Actual official high and low records may vary slightly from our data, if they occured in-between our weather recording intervals... More about our weather records

Advertising

Kralendijk (Bonaire) weather history for previous 24 hours

 ConditionsComfort  
Time TempWeatherWind HumidityBarometerVisibility
8:00 PM
Dec 21
77 °FPassing clouds.15 mph79%29.92 "HgN/A
7:00 PM82 °FPassing clouds.15 mph74%29.89 "HgN/A
6:00 PM82 °FWarm.17 mph74%29.89 "HgN/A
5:00 PM84 °FScattered clouds.18 mph70%29.89 "HgN/A
2:00 PM84 °FWarm.17 mph70%29.92 "HgN/A
1:00 PM88 °FScattered clouds.16 mph70%29.95 "HgN/A
12:00 PM86 °FWarm.20 mph70%29.95 "HgN/A
11:00 AM86 °FScattered clouds.20 mph70%29.98 "HgN/A
10:00 AM86 °FScattered clouds.18 mph70%29.95 "HgN/A
9:00 AM84 °FScattered clouds.17 mph74%29.95 "HgN/A
7:55 AM81 °FScattered clouds.16 mph79%29.92 "HgN/A
7:00 AM81 °FWarm.15 mph79%29.89 "HgN/A
6:00 AM81 °FWarm.14 mph79%29.89 "HgN/A
5:00 AM81 °FWarm.14 mph79%29.89 "HgN/A
4:00 AM81 °FWarm.14 mph79%29.89 "HgN/A
3:00 AM81 °FWarm.13 mph79%29.89 "HgN/A
2:00 AM81 °FWarm.12 mph79%29.89 "HgN/A
1:00 AM81 °FWarm.14 mph79%29.92 "HgN/A
12:00 AM81 °FWarm.12 mph79%29.92 "HgN/A
11:00 PM
Dec 20
81 °FWarm.13 mph79%29.92 "HgN/A
10:00 PM81 °FWarm.12 mph79%29.92 "HgN/A
9:00 PM81 °FWarm.14 mph79%29.92 "HgN/A
Weather by CustomWeather, © 2014

See weather overviewHow to use our weather pages